RH
19 19 21 25 26 27 27 27 23 28 28 29 29 30 30 31 32 32 32 34 37 43 48 42 37 35 34 37 38 37 36 33
17 17 21 23 27 27 26 26 29 30 31 31 33 33 35 35 34 34 33 33 32 33 38 40 41 40 38 39 41 40 41 38
23 24 25 25 26 27 27 28 30 31 33 36 37 38 37 37 38 36 35 35 34 34 33 37 40 42 42 41 41 43 44 44
23 23 23 25 26 27 28 29 31 33 35 37 39 40 40 41 39 41 41 39 36 34 35 38 41 43 44 43 44 45 46 47
24 24 25 26 27 29 30 31 32 34 37 41 44 44 44 44 43 38 39 45 41 37 36 38 43 49 48 47 48 49 52 51
26 26 27 28 29 30 32 33 35 40 44 44 44 46 43 42 36 39 40 45 49 43 40 39 48 55 52 53 55 64 61 56
28 30 31 31 34 36 39 43 45 46 46 45 44 45 44 42 36 39 38 37 38 39 46 44 58 60 65 72 62 60 59 65
29 31 33 38 43 45 45 44 44 44 43 41 42 39 36 40 40 41 40 40 40 45 52 57 65 70 78 70 75 82 92 99
33 40 45 46 46 46 46 46 45 44 42 42 43 42 45 47 48 44 42 42 52 64 65 74 74 75 85 93 99 100 99 97
47 44 45 49 49 49 49 46 44 41 44 48 46 46 44 56 55 45 44 44 53 63 62 64 76 94 100 100 99 96 91 73
47 48 49 53 51 48 44 44 45 45 44 45 51 51 50 58 52 49 48 53 60 58 58 66 83 88 75 56 55 53 53 55
53 55 56 53 47 47 52 54 49 51 59 66 72 60 56 58 54 53 53 54 55 69 77 76 48 47 52 54 54 58 61 56
55 55 57 48 54 58 49 51 48 56 70 79 66 58 59 59 56 53 51 54 75 56 51 43 40 45 49 56 56 44 48 47
60 61 61 55 64 63 51 55 65 75 76 71 62 60 65 59 54 53 55 59 63 62 66 54 56 56 58 60 62 58 45 47
67 70 60 63 66 60 51 52 65 73 68 63 58 74 59 53 55 62 69 72 91 80 59 58 60 61 62 62 55 45 45 46
74 67 64 69 71 56 64 68 70 69 60 63 92 68 57 59 71 83 82 94 82 70 64 63 63 62 53 46 44 48 57 63
74 62 64 70 64 68 72 69 75 64 70 86 99 96 95 97 98 95 86 94 98 97 79 59 50 45 43 49 57 65 65 63
70 62 63 61 71 75 67 72 70 71 79 86 97 100 98 98 91 79 71 75 71 57 49 43 38 43 50 56 60 64 68 63
63 55 59 64 74 66 68 78 78 87 99 96 89 83 77 77 77 70 70 55 50 44 43 45 48 51 61 67 66 60 60 66
Wind_Speed
14 19 19 19 17 13 8 6 6 7 7 10 12 16 18 19 19 20 22 25 27 26 23 22 21 22 22 21 21 21 20 18
3 7 10 12 13 9 5 5 6 4 6 9 12 15 18 22 23 23 23 24 26 28 28 27 25 24 25 24 23 23 23 20
10 8 7 5 4 5 5 6 6 7 10 13 16 19 21 24 27 29 30 31 29 29 31 33 32 31 29 29 29 28 26 23
7 4 2 4 5 5 8 10 11 11 12 15 19 23 26 28 30 34 36 38 38 36 36 38 38 38 37 36 33 31 30 26
6 4 7 7 7 8 11 12 14 13 16 18 20 24 29 29 31 35 35 36 39 42 41 40 41 41 37 34 33 32 30 28
4 6 6 7 8 10 12 13 13 13 14 18 26 33 35 38 40 37 34 34 36 41 43 43 42 39 34 33 32 26 24 24
3 4 5 7 9 11 10 6 6 12 20 27 32 35 39 41 38 33 32 32 32 32 38 43 42 38 29 26 24 26 21 15
6 9 9 8 7 3 7 13 18 23 28 35 36 39 37 33 34 36 35 32 33 34 30 35 34 27 32 32 20 17 20 17
8 4 6 1 5 11 17 24 30 35 39 38 33 29 30 32 34 34 34 31 28 23 19 24 23 27 18 15 18 23 26 27
8 3 3 6 13 21 25 30 32 33 29 28 29 32 33 32 31 31 31 29 24 23 23 22 13 15 19 29 34 31 14 16
5 5 8 15 22 26 28 28 29 27 28 30 33 39 35 30 29 28 24 19 18 16 13 15 20 23 18 12 11 12 18 21
9 12 19 24 27 26 24 26 28 26 27 33 37 40 33 31 28 24 18 13 10 12 16 19 10 8 10 14 17 19 22 26
19 21 23 26 28 26 29 25 31 31 32 36 42 45 31 26 22 16 14 11 17 11 10 8 8 11 14 18 22 24 26 30
22 22 25 24 26 28 29 30 32 32 37 43 45 36 23 20 19 16 12 11 10 10 13 15 16 17 20 24 26 28 31 31
23 24 26 25 26 30 32 33 32 36 40 41 35 23 15 16 13 9 8 5 9 13 15 19 23 26 27 28 31 32 34 33
19 28 31 27 27 31 31 31 34 37 36 29 23 14 10 12 12 13 12 14 14 14 20 23 24 26 28 30 30 28 29 31
25 31 31 29 30 32 29 33 32 27 19 17 14 10 9 12 16 13 9 14 18 17 21 25 27 29 29 28 28 29 33 37
29 31 32 29 30 26 32 31 22 13 12 11 10 11 9 11 11 12 14 17 21 21 24 28 30 30 29 29 30 32 35 39
27 31 29 30 29 34 30 22 16 15 12 7 6 7 8 10 16 23 23 19 22 25 27 27 28 28 27 29 33 37 37 35
Wind_Direction
251 252 242 234 226 220 239 292 319 332 354 348 336 325 318 311 308 309 305 297 294 287 285 290 275 266 265 265 268 269 273 281
239 259 230 216 203 220 263 309 321 336 352 347 340 337 326 314 305 299 294 290 289 284 282 280 276 271 271 267 267 263 267 273
106 102 119 164 235 259 280 287 322 319 331 336 329 323 316 310 310 301 291 284 281 281 274 271 270 267 263 261 260 258 259 263
118 127 198 248 284 297 292 281 283 299 308 312 315 314 307 305 311 305 300 295 283 272 266 263 263 263 260 258 251 245 250 250
156 206 238 251 255 265 270 272 278 289 300 307 310 309 304 301 303 309 301 294 288 278 271 266 262 257 254 247 242 235 233 234
189 235 243 243 253 260 261 261 273 291 301 306 311 311 309 313 315 312 306 304 297 278 268 264 256 247 245 239 235 224 222 227
274 207 228 256 244 245 253 266 284 298 305 309 312 309 309 309 310 309 305 302 296 295 275 254 241 239 234 217 210 215 219 235
247 248 253 226 220 262 313 319 320 317 313 311 308 310 311 308 307 309 312 309 302 293 273 244 230 223 221 211 213 238 246 258
249 244 175 206 323 329 327 322 319 316 313 312 313 315 312 308 310 311 310 307 296 269 222 204 204 204 204 243 248 301 294 306
123 87 343 332 329 329 324 319 316 319 323 324 323 324 322 314 313 311 307 304 290 240 211 195 202 228 288 304 312 320 327 306
48 10 340 332 330 328 323 321 324 325 324 324 322 327 326 314 308 303 299 280 233 207 214 251 267 308 314 314 310 297 288 288
340 334 333 328 326 324 329 326 328 324 321 322 324 328 322 304 300 289 269 215 212 269 282 305 319 313 307 297 296 295 293 293
323 320 318 330 327 330 333 333 331 327 323 322 325 325 314 284 276 262 238 249 286 292 307 310 309 305 300 298 298 298 299 300
308 310 325 326 325 331 337 330 329 327 322 322 322 325 302 259 250 241 248 264 277 296 317 317 313 307 301 299 299 299 301 300
299 308 325 325 327 331 336 334 325 320 320 322 325 324 278 234 230 233 228 247 309 321 300 305 308 307 302 296 298 300 298 297
305 319 323 326 322 328 323 323 319 318 321 323 323 307 257 227 223 241 250 276 318 286 279 282 289 294 298 300 302 300 297 294
316 319 326 324 319 316 316 319 317 321 326 332 320 285 248 255 265 304 282 277 277 292 287 293 301 304 307 308 306 301 298 297
321 324 322 320 317 317 321 318 315 322 326 328 339 327 327 319 335 339 328 310 292 291 300 304 306 308 308 306 304 302 301 300
331 327 325 314 316 317 317 314 300 296 298 333 343 352 339 328 315 305 306 303 305 305 305 307 309 311 311 308 306 303 301 300